Regional Weather Roundup
Issued by NWS Newport/Morehead, NC

Current Version | Previous Version | Text Only | Print | Product List | Glossary Off
Versions: 1 2 3 4 5 6 7 8 9 10 11 12 13 14 15 16 17 18 19 20 21 22 23 24 25 26 27 28 29 30 31 32 33 34 35 36 37 38 39 40 41 42 43 44 45 46 47 48 49 50
000 ASUS42 KMHX 091924 RWRMHX WEATHER ROUNDUP FOR EASTERN NORTH CAROLINA NATIONAL WEATHER SERVICE NEWPORT/MOREHEAD CITY NC 200 PM EST FRI DEC 09 2016 NOTE: "FAIR" INDICATES FEW OR NO CLOUDS BELOW 12,000 FEET WITH NO SIGNIFICANT WEATHER AND/OR OBSTRUCTIONS TO VISIBILITY NCZ015>017-031-032-045>047-102-103-092000- NORTH COAST CITY SKY/WX TMP DP RH WIND PRES REMARKS EDENTON SUNNY 43 18 36 N9G17 30.34S ELIZABETH CITY SUNNY 42 18 37 NW13 30.32F KITTY HAWK CLEAR 41 23 48 NW9 30.31R MANTEO SUNNY 41 20 43 N9 30.33R $$ NCZ045>047-081-094-103-104-092000- CENTRAL COAST CITY SKY/WX TMP DP RH WIND PRES REMARKS FRISCO SUNNY 43 24 47 NW8G16 30.32R $$ NCZ095-097-098-100-101-092000- SOUTHERN COAST CITY SKY/WX TMP DP RH WIND PRES REMARKS BEAUFORT SUNNY 45 22 40 NW13 30.33S CEDAR ISLAND NOT AVBL JACKSONVILLE SUNNY 45 20 36 N12 30.34S PINEY ISLAND CLEAR N/A N/A N/A NW15 30.32F WILMINGTON SUNNY 45 20 36 NW14 30.35S $$ NCZ011>013-027>030-043-044-078>080-089-090>093-098-092000- COASTAL PLAIN CITY SKY/WX TMP DP RH WIND PRES REMARKS AHOSKIE SUNNY 39 15 37 N5 30.35S CLINTON SUNNY 43 21 41 NW8G16 30.37S ELIZABETHTOWN SUNNY 44 19 37 N5 30.35F GOLDSBORO SUNNY 43 17 35 VRB6 30.34F GREENVILLE SUNNY 41 18 38 NW8 30.35F HAVELOCK SUNNY 44 20 38 N15 30.33F KENANSVILLE SUNNY 43 18 36 N9 30.36S KINSTON SUNNY 43 18 36 NW9G16 30.35F NEW BERN SUNNY 43 20 39 N10 30.35S RICHLANDS SUNNY 43 20 39 NW9 30.35S ROCKY MOUNT SUNNY 41 17 38 NW12 30.36F WASHINGTON SUNNY 43 16 34 NW10 30.34F WHITEVILLE SUNNY 44 20 38 W6 30.35F $$ AMZ130-135-150-152-154-156-158-170-250-252-270-ANZ085-086-088-633-658-670-092000- MARINE OBSERVATIONS STATION/POSITION TIME TEMP WIND PRES WAVE SWELL AIR SEA DIR/SP/G HT/PER HT/PER (UTC) (F) (DEG/KT/KT) (MB) (FT/S) (FT/S) CHESAPEAKE LIGHT NOT AVBL 64 E VA BEACH 1850 41 58 330/ 19/ 23 1024.5 6/ 7 2/15 DUCK 1900 39 53 320/ 16/ 18 1025.8 2 E DUCK NOT AVBL OREGON INLET 1900 40 52 320/ 10/ 16 1026.5 13E OREGON INLT NOT AVBL HATTERAS CG 1900 40 54 330/ 14/ 17 1026.1 DIAMOND BUOY 1850 42 76 350/ 16/ 21 1026.0 4/ 9 3/ 9 CAPE LOOKOUT 1900 42 350/ 13/ 16 1026.4 BEAUFORT LAB 1900 42 52 340/ 8/ 13 1025.8 30 SE NEW RVR IN 1908 44 69 340/ 12/ 17 1027.0 30 SE NEW RVR IN 1843 69 N/A 3/ 4 27 SE WRIGHTSVLE 1908 44 70 340/ 14/ 19 1026.7 5 SE WRIGHTSVLE 1908 42 61 330/ 14/ 21 1027.0 225 S CAPE HAT 1850 60 73 350/ 17/ 23 1022.7 6/ 7 2/11 41 SE CHARLESTON 1850 49 72 360/ 16/ 21 1027.0 5/ 6 2/10 $$

USA.gov is the U.S. government's official web portal to all federal, state and local government web resources and services.